SCP
0 0 0 0 0 1 1 0 1 4 6 4 3 3 1 1 1 1 2 0 0 0 0 0 0 0 0 0 0 0 0 0 0 0 0 0 0 0 0 0 0 0 0
0 0 0 0 0 1 1 1 3 3 2 1 1 1 1 0 0 0 0 0 0 0 0 0 0 0 0 0 0 0 0 0 0 0 0 -0 0 0 0 0 0 0 0
0 0 0 0 0 0 0 0 0 0 0 0 0 0 0 0 0 0 0 0 0 0 0 0 0 0 0 0 0 0 0 -0 0 0 0 0 0 0 0 0 0 0 0
0 0 0 0 0 0 0 0 0 0 0 0 0 0 0 0 0 0 0 0 0 0 0 0 0 0 0 0 0 0 0 0 -0 0 0 0 0 0 0 0 0 0 0
0 0 0 0 0 -0 -0 0 0 0 0 0 0 0 0 0 0 0 0 0 0 0 0 0 0 0 0 0 0 0 0 0 0 0 0 0 0 0 0 0 0 0 0
0 0 0 0 0 0 0 0 0 0 0 0 0 0 0 0 0 0 0 0 0 0 0 0 0 0 0 0 0 0 0 0 0 0 0 0 0 0 0 0 0 0 0
0 0 0 0 0 0 0 0 0 0 0 0 0 0 0 0 0 0 0 0 0 0 0 0 0 0 0 0 0 0 0 0 0 0 0 0 0 0 0 0 0 0 0
0 0 0 0 0 0 0 0 0 0 0 0 0 0 0 0 0 0 0 0 0 0 0 0 0 0 0 0 0 0 0 0 0 0 0 0 0 0 0 0 0 0 0
0 0 0 0 0 0 0 0 0 0 0 0 0 0 0 0 0 0 0 0 0 0 0 0 0 0 0 0 0 0 0 0 0 0 0 0 0 0 0 0 0 0 0
0 0 0 0 0 0 0 0 0 0 0 0 0 0 0 0 0 0 0 0 0 0 0 0 0 0 0 -0 0 0 0 0 0 0 0 0 0 0 0 0 0 0 0
0 0 0 0 0 0 0 0 0 0 0 0 0 0 0 0 0 0 0 0 0 0 0 0 0 0 0 0 0 0 0 0 0 0 0 0 0 0 0 0 0 0 0
0 0 0 0 0 0 0 0 0 0 0 0 0 0 0 0 0 0 0 0 0 0 0 0 0 0 0 0 -0 0 0 0 0 0 0 0 0 0 0 0 0 0 0
0 0 0 0 0 0 0 0 0 0 0 0 0 0 0 0 0 0 0 0 0 0 0 0 0 0 0 0 0 0 0 0 0 0 0 0 0 0 0 0 0 0 0
0 0 -0 0 0 0 0 0 0 0 0 0 0 0 0 0 0 0 0 0 0 0 0 0 0 0 0 0 0 -0 -0 0 0 0 0 0 0 0 0 0 0 0 0
0 -0 -0 -0 0 0 0 0 0 0 0 0 0 0 0 0 0 0 0 0 0 0 0 0 0 0 0 0 0 -0 -0 0 0 0 0 0 0 0 0 0 0 -0 -0
-0 -0 -0 0 0 0 0 0 0 0 0 0 0 0 0 0 0 0 0 0 0 0 0 0 0 0 0 0 0 0 0 0 0 0 0 0 0 0 0 0 0 0 -0
-0 0 0 0 0 0 0 0 0 0 0 0 0 0 0 0 0 0 0 0 0 0 0 0 0 -0 0 0 -0 -0 0 0 0 0 0 0 0 0 0 0 0 0 0
0 0 0 0 0 0 0 0 0 0 0 0 0 0 0 0 -0 0 0 -0 -0 0 0 0 0 0 0 0 -0 0 0 0 0 0 0 0 0 0 -0 -0 0 -0 -0
0 0 0 0 0 0 0 0 0 0 0 0 0 0 0 0 -0 0 0 0 0 -0 -0 -0 0 0 0 0 0 0 0 0 0 0 0 0 0 0 0 0 -0 -0 -0
0 0 0 0 0 0 0 0 0 -0 -0 0 0 -0 -0 0 0 0 0 0 0 0 0 -0 -0 -0 0 -0 -0 -0 -0 -0 -0 -0 -0 -0 0 -0 -0 -0 -0 -0 -0
-0 0 0 0 0 0 0 0 -0 -0 -0 0 0 0 -0 -0 0 -0 -0 0 -0 -0 0 -0 -0 -0 -0 -0 -0 -0 0 0 -0 -0 0 0 0 -0 0 0 0 0 0
-0 0 0 0 0 0 0 0 0 0 0 0 0 0 0 0 0 0 0 0 0 0 0 0 0 0 0 0 -0 -0 -0 -0 -0 -0 -0 -0 -0 0 0 0 -0 -0 -0
0 0 0 0 0 0 0 0 0 0 0 0 0 0 0 0 0 0 0 0 0 0 0 0 0 0 0 0 0 -0 -0 0 -0 -0 -0 0 0 0 0 0 -0 -0 -0
0 0 0 0 0 0 0 0 0 0 0 0 0 0 0 0 0 0 0 0 0 0 0 0 0 0 0 0 0 0 -0 -0 -0 -0 -0 -0 -0 0 -0 0 -0 -0 -0
0 0 0 0 0 0 0 0 0 0 0 0 0 0 0 0 0 0 0 0 0 0 0 -0 -0 -0 0 0 0 -0 0 0 0 0 0 0 0 -0 0 0 0 0 0
0 0 0 0 0 0 0 0 0 0 0 0 0 0 0 0 0 0 0 0 -0 -0 -0 0 0 0 0 0 -0 -0 0 0 0 0 -0 -0 -0 -0 -0 0 0 0 0
Wind_Speed_500mb
36 26 24 18 10 10 16 21 21 6 21 18 21 19 14 24 19 40 40 54 44 32 37 34 23 13 14 19 27 34 40 46 48 56 63 69 65 58 66 39 49 49 62
42 35 26 24 20 12 10 10 7 6 11 17 15 24 26 22 38 41 38 29 27 29 33 25 18 14 17 22 27 34 42 45 46 52 61 50 77 62 64 58 58 50 57
41 28 18 18 18 20 12 6 4 4 14 18 15 14 26 34 29 27 29 30 27 21 17 16 13 16 20 26 34 40 44 50 51 46 39 37 29 81 74 63 52 57 55
29 32 29 19 10 10 15 5 6 3 6 3 10 15 13 6 8 18 29 22 13 9 15 15 18 20 23 32 36 39 43 51 56 57 53 48 55 65 75 65 72 54 46
37 42 33 19 15 16 18 17 6 2 3 4 12 2 3 16 24 23 14 3 3 10 4 19 28 29 33 39 43 46 51 52 54 53 57 55 53 53 60 75 61 71 56
53 38 35 35 19 19 19 21 24 24 22 22 21 22 13 4 2 2 5 8 8 7 12 16 26 34 41 44 48 54 58 56 54 52 48 49 56 63 68 76 71 64 64
59 54 43 36 38 38 30 27 29 30 24 36 42 42 39 33 30 33 23 19 23 25 27 34 38 41 41 46 50 55 57 54 51 46 47 48 51 53 58 65 77 67 74
37 34 30 26 22 25 32 36 39 39 40 34 22 30 43 45 48 52 53 44 36 35 37 39 41 42 48 49 53 55 55 49 47 47 52 57 55 53 55 60 67 78 65
41 36 35 31 33 31 40 45 46 39 42 50 55 37 31 36 40 43 43 47 48 47 47 45 49 52 53 55 56 54 50 51 52 51 52 53 54 54 54 56 58 55 55
46 45 45 41 37 36 39 28 24 26 27 32 35 42 48 51 40 32 35 38 31 31 37 43 50 50 58 65 61 53 50 52 54 57 59 56 56 50 49 53 58 59 58
54 50 47 44 41 40 48 54 53 43 37 37 42 41 40 47 54 62 64 38 33 30 32 37 40 51 64 62 58 49 53 53 56 57 58 54 54 56 59 57 51 46 45
52 50 52 53 56 59 60 60 58 63 63 55 46 42 41 45 51 52 48 54 56 46 41 43 45 49 58 64 67 60 63 60 59 61 58 59 56 59 57 47 41 39 42
64 62 60 58 60 68 76 71 70 69 63 62 56 55 43 45 52 49 49 53 59 64 56 54 52 49 55 63 68 66 55 49 60 62 54 50 58 52 42 27 33 39 40
52 57 58 62 63 62 63 66 73 79 84 85 83 75 72 50 48 48 46 51 55 56 59 50 49 50 57 61 64 67 71 51 53 49 39 44 41 34 19 25 31 23 17
56 63 77 88 86 81 75 78 73 68 74 69 65 68 73 62 66 54 48 41 43 45 45 44 54 63 72 71 70 73 59 58 46 36 26 20 16 17 15 16 22 23 23
76 77 70 71 68 69 72 73 79 80 65 64 61 64 57 57 59 48 47 47 38 36 37 45 60 67 71 67 55 40 44 47 31 10 1 9 17 26 22 24 28 33 32
66 64 66 68 69 79 84 84 79 72 66 65 62 58 48 50 39 32 39 34 39 48 56 56 60 59 46 43 42 37 42 23 16 11 11 16 23 34 35 38 35 31 29
64 66 67 81 81 83 77 69 65 62 57 53 52 46 50 36 38 41 46 48 49 54 55 56 44 38 36 37 34 32 20 25 22 18 20 17 19 29 35 40 48 53 53
59 79 72 74 69 64 59 56 57 52 44 41 40 33 34 33 39 37 33 33 40 37 33 30 32 29 31 30 16 20 29 31 35 33 27 20 18 20 31 31 35 39 43
67 71 67 64 60 57 48 49 49 44 38 31 26 20 23 22 24 20 20 22 21 15 20 20 17 22 17 9 21 35 37 41 37 31 32 24 20 16 15 18 19 20 21
67 63 59 57 56 50 50 47 48 45 28 18 9 6 15 16 20 20 21 14 15 14 13 11 1 8 14 31 33 32 34 38 34 34 23 25 42 37 29 23 20 15 10
62 56 56 57 53 47 45 42 45 36 21 17 14 10 11 12 17 5 7 8 9 4 13 17 25 32 38 36 29 23 31 26 36 50 48 42 38 36 35 31 35 37 8
54 51 53 54 49 43 44 45 40 38 36 34 29 26 20 19 17 15 13 17 18 26 33 40 44 44 39 45 66 62 60 53 49 45 41 39 38 32 28 26 28 27 37
47 48 50 51 47 44 42 36 36 34 33 33 28 26 21 21 24 26 26 27 28 35 44 45 54 68 79 67 54 49 42 39 38 38 36 34 34 33 28 22 24 28 35
42 42 43 45 46 43 41 38 33 32 33 30 28 36 41 41 39 36 32 31 32 35 49 73 66 57 43 39 41 36 36 37 36 37 42 32 34 31 32 30 32 26 28
37 35 36 38 41 43 44 41 38 40 45 49 47 45 49 56 66 71 72 71 67 60 52 52 53 47 43 38 34 32 29 31 43 41 42 41 36 39 41 37 39 33 28
Wind_Direction_500mb
87 68 55 41 353 295 290 276 255 213 233 248 264 244 248 242 208 172 164 179 187 197 207 211 219 243 284 312 320 321 322 322 321 315 316 316 318 317 317 318 307 300 307
88 78 62 43 30 25 57 25 39 164 231 242 249 245 240 199 154 161 174 194 215 208 202 209 224 261 303 319 325 326 322 322 323 320 314 317 311 317 318 307 312 314 306
98 86 51 46 12 19 14 276 31 196 224 239 248 285 250 224 214 232 242 215 219 225 227 244 268 296 321 332 332 329 328 324 324 321 319 321 304 314 311 309 307 304 312
113 117 119 122 67 41 19 340 280 288 12 159 195 147 113 115 203 218 210 220 226 275 288 292 297 303 334 330 330 327 323 320 318 317 314 304 296 304 308 305 306 315 303
134 127 119 119 114 35 43 35 29 220 307 40 33 61 134 114 126 148 175 135 359 322 302 291 301 310 321 324 324 324 323 321 319 318 316 312 311 311 304 303 308 304 313
113 116 109 100 109 89 48 26 23 5 345 336 323 322 314 287 186 215 315 293 290 207 261 272 285 301 313 317 321 323 321 321 320 318 317 313 310 306 303 301 303 302 308
82 89 82 75 86 82 74 51 36 41 3 338 332 320 306 305 311 309 298 285 266 259 272 279 283 295 306 314 317 317 317 320 322 321 318 313 309 309 305 302 303 304 305
51 49 49 28 14 353 356 341 334 337 335 352 346 321 317 307 304 302 296 286 277 276 277 285 291 301 307 311 314 317 319 323 321 319 315 309 305 305 306 303 300 304 306
70 68 49 44 41 26 18 7 350 344 328 302 302 305 309 299 304 303 294 289 283 281 286 287 290 297 306 313 315 317 318 322 318 316 313 312 308 306 304 295 294 301 309
45 43 42 40 34 28 26 24 360 360 347 326 306 298 289 287 286 281 284 287 282 287 294 299 303 306 312 311 310 316 316 315 313 312 309 306 310 306 302 299 295 292 297
31 20 11 2 353 348 346 339 332 331 334 336 316 301 295 298 292 278 275 255 273 269 272 283 291 302 306 310 299 312 306 307 305 306 308 309 305 304 305 303 302 298 290
22 15 2 343 334 331 325 327 323 318 313 309 303 308 303 299 291 282 270 261 265 265 273 273 284 295 300 299 301 309 300 301 303 302 303 306 306 303 306 307 300 295 294
357 348 342 338 328 318 314 307 303 302 308 309 302 295 297 290 284 284 282 284 279 273 270 279 282 288 289 291 293 301 310 303 297 299 304 306 306 313 309 300 295 299 300
353 344 336 327 325 323 319 312 307 304 299 299 299 299 292 288 283 288 286 282 281 287 281 277 281 283 286 290 295 297 308 297 292 297 290 305 312 315 308 303 304 317 354
347 335 326 321 320 319 318 316 316 310 308 308 304 295 294 292 281 285 276 286 290 283 272 277 277 281 291 290 293 290 294 287 291 273 302 316 353 23 42 42 51 55 55
333 328 325 323 321 319 314 311 309 309 308 304 301 304 296 304 287 278 286 272 279 271 269 276 290 291 293 292 293 290 278 286 241 258 239 47 36 29 47 66 69 70 68
327 327 324 321 317 315 313 312 311 306 301 295 297 294 301 297 292 285 271 281 283 288 292 293 292 290 287 287 283 272 281 235 200 161 124 78 51 39 57 65 66 67 71
329 327 324 321 321 316 314 314 310 307 301 300 297 297 289 294 288 294 298 296 288 292 291 291 284 283 281 279 277 279 221 180 164 171 148 125 78 58 56 68 71 70 67
326 324 325 322 324 326 323 319 318 317 310 298 297 292 297 292 291 293 293 288 291 289 289 290 285 285 283 285 262 191 184 162 146 133 125 112 80 65 61 74 78 73 69
334 333 334 338 341 338 335 331 332 328 323 322 307 289 307 293 303 303 293 291 287 307 305 301 307 287 285 208 173 172 165 146 128 119 122 107 94 78 60 83 75 70 71
339 342 347 352 353 354 349 342 344 333 325 324 327 290 283 282 287 287 297 310 311 315 304 297 80 130 137 138 143 138 134 127 120 118 106 91 94 90 76 60 50 43 30
346 352 357 4 5 9 5 10 11 18 36 48 46 49 40 49 23 21 47 7 10 69 126 131 123 117 118 117 107 98 89 87 97 99 93 87 82 74 64 56 52 50 34
353 1 7 10 14 20 21 24 30 43 56 63 64 67 56 42 48 69 56 63 91 112 117 114 108 106 112 97 93 91 93 95 94 91 89 85 80 70 52 51 56 56 47
3 8 14 20 21 29 30 35 38 47 59 70 72 79 62 68 79 77 85 100 114 117 114 105 100 102 99 99 96 90 86 86 87 84 82 82 79 70 54 58 56 55 53
10 14 18 26 29 33 35 38 48 61 68 68 68 76 79 78 78 81 84 95 103 108 111 102 91 91 92 89 89 89 86 83 72 60 77 86 84 74 64 57 54 54 51
13 19 28 34 38 42 44 50 60 70 77 79 83 86 87 90 91 92 92 90 91 93 92 96 96 95 94 89 88 94 87 81 91 83 73 64 62 59 57 58 51 46 50
Wind_Speed_850mb
36 26 24 18 10 10 16 21 21 6 21 18 21 19 14 24 19 40 40 54 44 32 37 34 23 13 14 19 27 34 40 46 48 56 63 69 65 58 66 39 49 49 62
42 35 26 24 20 12 10 10 7 6 11 17 15 24 26 22 38 41 38 29 27 29 33 25 18 14 17 22 27 34 42 45 46 52 61 50 77 62 64 58 58 50 57
41 28 18 18 18 20 12 6 4 4 14 18 15 14 26 34 29 27 29 30 27 21 17 16 13 16 20 26 34 40 44 50 51 46 39 37 29 81 74 63 52 57 55
29 32 29 19 10 10 15 5 6 3 6 3 10 15 13 6 8 18 29 22 13 9 15 15 18 20 23 32 36 39 43 51 56 57 53 48 55 65 75 65 72 54 46
37 42 33 19 15 16 18 17 6 2 3 4 12 2 3 16 24 23 14 3 3 10 4 19 28 29 33 39 43 46 51 52 54 53 57 55 53 53 60 75 61 71 56
53 38 35 35 19 19 19 21 24 24 22 22 21 22 13 4 2 2 5 8 8 7 12 16 26 34 41 44 48 54 58 56 54 52 48 49 56 63 68 76 71 64 64
59 54 43 36 38 38 30 27 29 30 24 36 42 42 39 33 30 33 23 19 23 25 27 34 38 41 41 46 50 55 57 54 51 46 47 48 51 53 58 65 77 67 74
37 34 30 26 22 25 32 36 39 39 40 34 22 30 43 45 48 52 53 44 36 35 37 39 41 42 48 49 53 55 55 49 47 47 52 57 55 53 55 60 67 78 65
41 36 35 31 33 31 40 45 46 39 42 50 55 37 31 36 40 43 43 47 48 47 47 45 49 52 53 55 56 54 50 51 52 51 52 53 54 54 54 56 58 55 55
46 45 45 41 37 36 39 28 24 26 27 32 35 42 48 51 40 32 35 38 31 31 37 43 50 50 58 65 61 53 50 52 54 57 59 56 56 50 49 53 58 59 58
54 50 47 44 41 40 48 54 53 43 37 37 42 41 40 47 54 62 64 38 33 30 32 37 40 51 64 62 58 49 53 53 56 57 58 54 54 56 59 57 51 46 45
52 50 52 53 56 59 60 60 58 63 63 55 46 42 41 45 51 52 48 54 56 46 41 43 45 49 58 64 67 60 63 60 59 61 58 59 56 59 57 47 41 39 42
64 62 60 58 60 68 76 71 70 69 63 62 56 55 43 45 52 49 49 53 59 64 56 54 52 49 55 63 68 66 55 49 60 62 54 50 58 52 42 27 33 39 40
52 57 58 62 63 62 63 66 73 79 84 85 83 75 72 50 48 48 46 51 55 56 59 50 49 50 57 61 64 67 71 51 53 49 39 44 41 34 19 25 31 23 17
56 63 77 88 86 81 75 78 73 68 74 69 65 68 73 62 66 54 48 41 43 45 45 44 54 63 72 71 70 73 59 58 46 36 26 20 16 17 15 16 22 23 23
76 77 70 71 68 69 72 73 79 80 65 64 61 64 57 57 59 48 47 47 38 36 37 45 60 67 71 67 55 40 44 47 31 10 1 9 17 26 22 24 28 33 32
66 64 66 68 69 79 84 84 79 72 66 65 62 58 48 50 39 32 39 34 39 48 56 56 60 59 46 43 42 37 42 23 16 11 11 16 23 34 35 38 35 31 29
64 66 67 81 81 83 77 69 65 62 57 53 52 46 50 36 38 41 46 48 49 54 55 56 44 38 36 37 34 32 20 25 22 18 20 17 19 29 35 40 48 53 53
59 79 72 74 69 64 59 56 57 52 44 41 40 33 34 33 39 37 33 33 40 37 33 30 32 29 31 30 16 20 29 31 35 33 27 20 18 20 31 31 35 39 43
67 71 67 64 60 57 48 49 49 44 38 31 26 20 23 22 24 20 20 22 21 15 20 20 17 22 17 9 21 35 37 41 37 31 32 24 20 16 15 18 19 20 21
67 63 59 57 56 50 50 47 48 45 28 18 9 6 15 16 20 20 21 14 15 14 13 11 1 8 14 31 33 32 34 38 34 34 23 25 42 37 29 23 20 15 10
62 56 56 57 53 47 45 42 45 36 21 17 14 10 11 12 17 5 7 8 9 4 13 17 25 32 38 36 29 23 31 26 36 50 48 42 38 36 35 31 35 37 8
54 51 53 54 49 43 44 45 40 38 36 34 29 26 20 19 17 15 13 17 18 26 33 40 44 44 39 45 66 62 60 53 49 45 41 39 38 32 28 26 28 27 37
47 48 50 51 47 44 42 36 36 34 33 33 28 26 21 21 24 26 26 27 28 35 44 45 54 68 79 67 54 49 42 39 38 38 36 34 34 33 28 22 24 28 35
42 42 43 45 46 43 41 38 33 32 33 30 28 36 41 41 39 36 32 31 32 35 49 73 66 57 43 39 41 36 36 37 36 37 42 32 34 31 32 30 32 26 28
37 35 36 38 41 43 44 41 38 40 45 49 47 45 49 56 66 71 72 71 67 60 52 52 53 47 43 38 34 32 29 31 43 41 42 41 36 39 41 37 39 33 28
Wind_Direction_850mb
87 68 55 41 353 295 290 276 255 213 233 248 264 244 248 242 208 172 164 179 187 197 207 211 219 243 284 312 320 321 322 322 321 315 316 316 318 317 317 318 307 300 307
88 78 62 43 30 25 57 25 39 164 231 242 249 245 240 199 154 161 174 194 215 208 202 209 224 261 303 319 325 326 322 322 323 320 314 317 311 317 318 307 312 314 306
98 86 51 46 12 19 14 276 31 196 224 239 248 285 250 224 214 232 242 215 219 225 227 244 268 296 321 332 332 329 328 324 324 321 319 321 304 314 311 309 307 304 312
113 117 119 122 67 41 19 340 280 288 12 159 195 147 113 115 203 218 210 220 226 275 288 292 297 303 334 330 330 327 323 320 318 317 314 304 296 304 308 305 306 315 303
134 127 119 119 114 35 43 35 29 220 307 40 33 61 134 114 126 148 175 135 359 322 302 291 301 310 321 324 324 324 323 321 319 318 316 312 311 311 304 303 308 304 313
113 116 109 100 109 89 48 26 23 5 345 336 323 322 314 287 186 215 315 293 290 207 261 272 285 301 313 317 321 323 321 321 320 318 317 313 310 306 303 301 303 302 308
82 89 82 75 86 82 74 51 36 41 3 338 332 320 306 305 311 309 298 285 266 259 272 279 283 295 306 314 317 317 317 320 322 321 318 313 309 309 305 302 303 304 305
51 49 49 28 14 353 356 341 334 337 335 352 346 321 317 307 304 302 296 286 277 276 277 285 291 301 307 311 314 317 319 323 321 319 315 309 305 305 306 303 300 304 306
70 68 49 44 41 26 18 7 350 344 328 302 302 305 309 299 304 303 294 289 283 281 286 287 290 297 306 313 315 317 318 322 318 316 313 312 308 306 304 295 294 301 309
45 43 42 40 34 28 26 24 360 360 347 326 306 298 289 287 286 281 284 287 282 287 294 299 303 306 312 311 310 316 316 315 313 312 309 306 310 306 302 299 295 292 297
31 20 11 2 353 348 346 339 332 331 334 336 316 301 295 298 292 278 275 255 273 269 272 283 291 302 306 310 299 312 306 307 305 306 308 309 305 304 305 303 302 298 290
22 15 2 343 334 331 325 327 323 318 313 309 303 308 303 299 291 282 270 261 265 265 273 273 284 295 300 299 301 309 300 301 303 302 303 306 306 303 306 307 300 295 294
357 348 342 338 328 318 314 307 303 302 308 309 302 295 297 290 284 284 282 284 279 273 270 279 282 288 289 291 293 301 310 303 297 299 304 306 306 313 309 300 295 299 300
353 344 336 327 325 323 319 312 307 304 299 299 299 299 292 288 283 288 286 282 281 287 281 277 281 283 286 290 295 297 308 297 292 297 290 305 312 315 308 303 304 317 354
347 335 326 321 320 319 318 316 316 310 308 308 304 295 294 292 281 285 276 286 290 283 272 277 277 281 291 290 293 290 294 287 291 273 302 316 353 23 42 42 51 55 55
333 328 325 323 321 319 314 311 309 309 308 304 301 304 296 304 287 278 286 272 279 271 269 276 290 291 293 292 293 290 278 286 241 258 239 47 36 29 47 66 69 70 68
327 327 324 321 317 315 313 312 311 306 301 295 297 294 301 297 292 285 271 281 283 288 292 293 292 290 287 287 283 272 281 235 200 161 124 78 51 39 57 65 66 67 71
329 327 324 321 321 316 314 314 310 307 301 300 297 297 289 294 288 294 298 296 288 292 291 291 284 283 281 279 277 279 221 180 164 171 148 125 78 58 56 68 71 70 67
326 324 325 322 324 326 323 319 318 317 310 298 297 292 297 292 291 293 293 288 291 289 289 290 285 285 283 285 262 191 184 162 146 133 125 112 80 65 61 74 78 73 69
334 333 334 338 341 338 335 331 332 328 323 322 307 289 307 293 303 303 293 291 287 307 305 301 307 287 285 208 173 172 165 146 128 119 122 107 94 78 60 83 75 70 71
339 342 347 352 353 354 349 342 344 333 325 324 327 290 283 282 287 287 297 310 311 315 304 297 80 130 137 138 143 138 134 127 120 118 106 91 94 90 76 60 50 43 30
346 352 357 4 5 9 5 10 11 18 36 48 46 49 40 49 23 21 47 7 10 69 126 131 123 117 118 117 107 98 89 87 97 99 93 87 82 74 64 56 52 50 34
353 1 7 10 14 20 21 24 30 43 56 63 64 67 56 42 48 69 56 63 91 112 117 114 108 106 112 97 93 91 93 95 94 91 89 85 80 70 52 51 56 56 47
3 8 14 20 21 29 30 35 38 47 59 70 72 79 62 68 79 77 85 100 114 117 114 105 100 102 99 99 96 90 86 86 87 84 82 82 79 70 54 58 56 55 53
10 14 18 26 29 33 35 38 48 61 68 68 68 76 79 78 78 81 84 95 103 108 111 102 91 91 92 89 89 89 86 83 72 60 77 86 84 74 64 57 54 54 51
13 19 28 34 38 42 44 50 60 70 77 79 83 86 87 90 91 92 92 90 91 93 92 96 96 95 94 89 88 94 87 81 91 83 73 64 62 59 57 58 51 46 50